Jacksonville, FL

7:02 PM EDT on August 28, 2016 (GMT -0400)
Craig Municipal

Weather History for KCRG - December, 2013

Change the Weather History Date:

Sunday, December 15, 2013

  Actual Average Record
Temperature  
Mean Temperature 59 °F -  
Max Temperature 68 °F 63 °F 82 °F (2007)
Min Temperature 48 °F 45 °F 30 °F (2010)
Degree Days  
Heating Degree Days 6    
Growing Degree Days 9 (Base 50)    
Moisture  
Dew Point 56 °F    
Average Humidity 82    
Maximum Humidity 93    
Minimum Humidity 63    
Precipitation  
Precipitation 0.31 in - - ()
Sea Level Pressure  
Sea Level Pressure 29.98 in    
Wind  
Wind Speed 9 mph (WNW)    
Max Wind Speed 24 mph    
Max Gust Speed 30 mph    
Visibility 9 miles    
Events Rain    
Averages and records for this station are not official NWS values.
T = Trace of Precipitation, MM = Missing Value Source: NWS Daily Summary

Daily Weather History Graph

Daily Weather History Graph

Search for Another Location

Airport or City:

Trip Planner

Search our weather history database for the weather conditions in past years. The results will help you decide how hot, cold, wet, or windy it might be!

Date:

Astronomy

Dec. 15, 2013 Rise Set
Actual Time 7:15 AM EST 5:27 PM EST
Civil Twilight 6:48 AM EST 5:53 PM EST
Nautical Twilight 6:18 AM EST 6:23 PM EST
Astronomical Twilight 5:49 AM EST 6:53 PM EST
Moon 4:26 PM EST (12/15) 5:35 AM EST (12/15)
Length of Visible Light 11h 05m
Length of Day
10h 12m
Waxing Gibbous, 97% of the Moon is Illuminated
Dec 15
Waxing Gibbous
Dec 17
Full
Dec 25
Last Quarter
Jan 1
New
Jan 7
First Quarter

Hourly Weather History & Observations

Time (EST) Temp. Dew Point Humidity Pressure Visibility Wind Dir Wind Speed Gust Speed Precip Events Conditions
12:48 AM 68.0 °F 64.4 °F 88% 29.90 in 5.0 mi SW 8.1 mph - 0.13 in Rain Heavy Rain
12:53 AM 66.9 °F 64.0 °F 90% 29.90 in 5.0 mi SSW 11.5 mph - 0.15 in Rain Rain
1:36 AM 66.9 °F 64.0 °F 90% 29.88 in 10.0 mi SSW 9.2 mph - 0.04 in Rain Light Rain
1:53 AM 66.9 °F 64.0 °F 90% 29.88 in 10.0 mi SSW 9.2 mph - 0.04 in Rain Light Rain
2:53 AM 66.0 °F 64.0 °F 93% 29.87 in 10.0 mi SW 4.6 mph - 0.02 in Rain Light Rain
3:44 AM 66.9 °F 64.0 °F 90% 29.87 in 10.0 mi SW 4.6 mph - 0.00 in   Overcast
3:53 AM 66.9 °F 64.0 °F 90% 29.87 in 10.0 mi SW 4.6 mph - 0.00 in   Overcast
4:23 AM 66.9 °F 64.0 °F 90% 29.88 in 10.0 mi West 4.6 mph - N/A   Overcast
4:31 AM 66.9 °F 64.0 °F 90% 29.88 in 10.0 mi West 4.6 mph - N/A   Overcast
4:53 AM 62.1 °F 59.0 °F 90% 29.92 in 2.5 mi NNW 24.2 mph 29.9 mph 0.04 in Rain Light Rain
4:57 AM 61.0 °F 57.9 °F 90% 29.92 in 4.0 mi NNW 20.7 mph 29.9 mph 0.00 in Rain Light Rain
5:05 AM 61.0 °F 57.0 °F 87% 29.92 in 8.0 mi NNW 18.4 mph - 0.00 in Rain Light Rain
5:44 AM 62.1 °F 57.0 °F 84% 29.92 in 10.0 mi NNW 5.8 mph - 0.00 in   Overcast
5:53 AM 61.0 °F 57.0 °F 87% 29.93 in 10.0 mi NW 5.8 mph - 0.00 in Rain Light Rain
6:53 AM 60.1 °F 57.0 °F 90% 29.95 in 9.0 mi NNW 3.5 mph - 0.04 in Rain Light Rain
7:53 AM 61.0 °F 57.0 °F 87% 29.98 in 10.0 mi Calm Calm - 0.00 in Rain Light Rain
8:53 AM 61.0 °F 57.0 °F 87% 29.99 in 10.0 mi South 4.6 mph - 0.01 in Rain Light Rain
9:53 AM 61.0 °F 57.9 °F 90% 30.02 in 10.0 mi West 4.6 mph - 0.01 in   Overcast
10:53 AM 64.0 °F 57.9 °F 80% 30.00 in 10.0 mi WSW 4.6 mph - N/A   Overcast
11:53 AM 64.9 °F 55.9 °F 73% 30.00 in 10.0 mi West 9.2 mph - 0.00 in Rain Light Rain
12:30 PM 64.9 °F 57.0 °F 75% 29.98 in 10.0 mi West 6.9 mph - 0.00 in   Mostly Cloudy
12:53 PM 64.9 °F 57.0 °F 75% 29.97 in 10.0 mi WNW 9.2 mph - 0.00 in   Mostly Cloudy
1:53 PM 66.0 °F 55.9 °F 70% 29.97 in 10.0 mi NW 9.2 mph - N/A   Overcast
2:53 PM 66.9 °F 54.0 °F 63% 29.98 in 10.0 mi West 12.7 mph 19.6 mph N/A   Mostly Cloudy
3:53 PM 63.0 °F 53.1 °F 70% 29.99 in 10.0 mi WNW 12.7 mph - N/A   Mostly Cloudy
4:50 PM 60.8 °F 53.6 °F 77% 30.00 in 10.0 mi NW 12.7 mph - N/A   Mostly Cloudy
4:53 PM 61.0 °F 53.1 °F 75% 30.01 in 10.0 mi NW 10.4 mph - N/A   Mostly Cloudy
5:53 PM 57.9 °F 50.0 °F 75% 30.04 in 10.0 mi NW 15.0 mph - N/A   Overcast
6:53 PM 55.9 °F 48.0 °F 75% 30.07 in 10.0 mi NW 15.0 mph - N/A   Overcast
7:53 PM 54.0 °F 46.0 °F 75% 30.10 in 10.0 mi WNW 10.4 mph - N/A   Overcast
8:53 PM 52.0 °F 43.0 °F 71% 30.13 in 10.0 mi WNW 9.2 mph - N/A   Scattered Clouds
9:53 PM 51.1 °F 42.1 °F 71% 30.15 in 10.0 mi WNW 6.9 mph - N/A   Clear
10:53 PM 50.0 °F 42.1 °F 74% 30.17 in 10.0 mi WNW 5.8 mph - N/A   Clear
11:53 PM 48.9 °F 41.0 °F 74% 30.18 in 10.0 mi NW 10.4 mph - N/A   Clear